User: anonymous   Login
Location: Unspecified
(41.5000°N, 0.0000°E)
Time: 11:33:28
(UTC+00:00)
Language:

Transit 2A - Orbit

View from above orbital plane
View from above orbital plane
View from above satellite
View from above satellite

Ground track
Ground track

The orbit data is extracted from the following two-line orbital elements,

1    45U 60007A   19175.94193226 -.00000067  00000-0  10431-4 0  9998
2    45  66.6940 245.6317 0260404 217.9129 140.3388 14.33641653 71312
Epoch (UTC): 24 June 2019 22:36:22
Eccentricity: 0.0260404
inclination: 66.6940°
perigee height: 593 km
apogee height: 966 km
right ascension of ascending node: 245.6317°
argument of perigee: 217.9129°
revolutions per day: 14.33641653
mean anomaly at epoch: 140.3388°
orbit number at epoch: 7131

The dashed part of the orbit path shows where the satellite is in the earth's shadow,  

DLR